Regional Weather Roundup
Issued by NWS

Home | Current Version | Previous Version | Text Only | Print | Product List | Glossary On
Versions: 1 2 3 4 5 6 7 8 9 10 11 12 13 14 15 16 17 18 19 20 21 22 23 24 25 26 27 28 29 30 31 32 33 34 35 36 37 38 39 40 41 42 43 44 45 46 47 48 49 50
000
ASUS43 KLSX 161757
RWRMO

WEATHER SUMMARY FOR MISSOURI
NATIONAL WEATHER SERVICE SPRINGFIELD MO
1200 PM CST MON JAN 16 2017

NOTE: "FAIR" INDICATES FEW OR NO CLOUDS BELOW 12,000 FEET WITH NO
       SIGNIFICANT WEATHER AND/OR OBSTRUCTIONS TO VISIBILITY.
       CURRENT SKY AND/OR WEATHER CONDITIONS ARE NOT AVAILABLE FOR
       CHILLICOTHE AND FARMINGTON.

MOZ001>031-035>038-043-044-053-054-161900-
...NORTHERN AND WESTERN MISSOURI...

CITY           SKY/WX    TMP DP  RH WIND       PRES   REMARKS
KANSAS CTY INT LGT RAIN  43  43 100 CALM      29.87F VSB 1/8
6HR MIN TEMP:  35; 6HR MAX TEMP:  43; 6HR PCP:  0.19;

KANSAS C DTWN  LGT RAIN  42  32  67 E8        29.87F
LEE`S SUMMIT   CLOUDY    49  48  97 E9        29.87F
6HR MIN TEMP:  37; 6HR MAX TEMP:  49; 6HR PCP:  0.02;

ST JOSEPH      CLOUDY    38  38 100 E7        29.89F
6HR MIN TEMP:  33; 6HR MAX TEMP:  38; 6HR PCP:  0.26;

CHILLICOTHE      N/A     39  38  96 VRB5      29.93F
6HR MIN TEMP:  33; 6HR MAX TEMP:  39; 6HR PCP:  0.31;


$$
MOZ066>068-077>081-088>096-101>105-161900-
...SOUTHWEST MISSOURI...

CITY           SKY/WX    TMP DP  RH WIND       PRES   REMARKS
SPRINGFIELD    CLOUDY    55  53  93 SE20      29.89F
6HR MIN TEMP:  48; 6HR MAX TEMP:  55; 6HR PCP:  0.01;

BRANSON        CLOUDY    54  54 100 SE9       29.94F FOG

$$
MOZ032>034-039>042-045>050-055>058-069>072-161900-
...CENTRAL MISSOURI...

CITY           SKY/WX    TMP DP  RH WIND       PRES   REMARKS
COLUMBIA       NOT AVBL
JEFFERSON CITY CLOUDY    51  49  92 E10       29.94F
6HR MIN TEMP:  39; 6HR MAX TEMP:  51; 6HR PCP:  0.12;

ROLLA          CLOUDY    54  54 100 S14       29.95F
6HR MIN TEMP:  39; 6HR MAX TEMP:  54; 6HR PCP:  0.05;

SEDALIA        CLOUDY    57  54  89 S10       29.91F
6HR MIN TEMP:  40; 6HR MAX TEMP:  57; 6HR PCP:  0.07;

WARRENSBURG    CLOUDY    54  52  94 SE7       29.89F

$$
MOZ051-052-059>065-161900-
...EAST CENTRAL MISSOURI...

CITY           SKY/WX    TMP DP  RH WIND       PRES   REMARKS
ST LOUIS INTL  LGT RAIN  48  46  93 SE12      30.03F FOG
6HR MIN TEMP:  40; 6HR MAX TEMP:  48; 6HR PCP:  0.02;

ST CHARLES     CLOUDY    46  46 100 E7        30.04F FOG

$$
MOZ072>076-082>087-097>100-106>115-161900-
...SOUTH CENTRAL AND SOUTHEAST MISSOURI...

CITY           SKY/WX    TMP DP  RH WIND       PRES   REMARKS
CAPE GIRARDEAU LGT RAIN  52  50  93 SE12      30.07F
6HR MIN TEMP:  43; 6HR MAX TEMP:  52; 6HR PCP:  0.01;

POPLAR BLUFF   CLOUDY    53  53 100 SE3       30.05F FOG
6HR MIN TEMP:  43; 6HR MAX TEMP:  53; 6HR PCP:  0.03;

WEST PLAINS    FOG       53  52  96 S13       30.01F VSB 1/4
6HR MIN TEMP:  44; 6HR MAX TEMP:  53; 6HR PCP:  0.02;


$$


USA.gov is the U.S. government's official web portal to all federal, state and local government web resources and services.